[[{"header":{"parameterUnit":"m.s-1","parameterCategory":1,"la1":30.2991,"la2":30.254,"lo1":-89.0895,"lo2":-89.0444,"dy":0.0017,"dx":0.0017,"nx":28,"ny":28,"refTime":"2023-10-22T21:00:00:Z","depth":0,"parameterNumber":2,"parameterNumberName":"U-component_of_WINDS"},"data":[0,0,0,0,0,0,0,0,0,0,0,0,0,0,0,0,0,0,0,0,0,0,0,0,0,0,0,0,0,0,0,0,0,0,0,0,0,0,0,0,0,0,0,0,0,0,0,0,0,0,0,0,0,0,0,0,0,0,-0.7984,-0.7984,0,-0.7994,-0.7994,-0.7994,-0.7956,-0.7955,-0.7954,-0.7953,-0.7965,-0.7966,-0.7967,0,0,0,0,0,0,0,0,0,0,0,0,0,-0.7934,-0.7936,-0.7984,-0.7984,-0.7984,-0.7994,-0.7994,-0.7994,-0.7957,-0.7955,-0.7954,-0.7953,-0.7964,-0.7966,-0.7967,0,0,0,0,0,0,0,0,0,0,0,0,0,-0.7951,-0.7936,-0.7984,-0.7967,-0.7965,-0.7994,-0.7994,-0.7994,-0.7957,-0.7955,-0.7953,-0.7952,-0.7964,-0.7966,-0.7968,-0.8014,0,0,-0.7974,-0.7975,0,0,0,0,0,0,0,0,-0.795,-0.7953,-0.7969,-0.7968,-0.7966,-0.7972,-0.7981,-0.8001,-0.7957,-0.796,-0.7953,-0.7951,-0.7969,-0.797,-0.7976,-0.8015,-0.8015,-0.7974,-0.7975,-0.7976,-0.7977,0,0,0,0,0,0,0,-0.7949,-0.7953,-0.7988,-0.7969,-0.7968,-0.7959,-0.7959,-0.7984,-0.7974,-0.796,-0.7957,-0.7959,-0.7968,-0.7974,-0.7976,-0.8015,-0.7974,-0.7976,-0.7977,-0.7978,-0.8092,-0.8094,0,0,0,0,0,0,-0.795,-0.7952,-0.7988,-0.7988,-0.7954,-0.7961,-0.7962,-0.7972,-0.7973,-0.7972,-0.796,-0.7957,-0.7971,-0.7973,-0.7976,-0.803,-0.7976,-0.7978,-0.7979,-0.809,-0.8093,-0.8095,0,0,0,0,0,0,-0.7949,-0.7954,-0.7987,-0.7969,-0.7973,-0.7964,-0.7976,-0.7973,-0.7979,-0.7974,-0.7972,-0.7968,-0.797,-0.7973,-0.8005,-0.803,-0.7979,-0.7981,-0.8088,-0.8091,-0.8094,-0.8138,0,0,0,0,0,0,-0.7948,-0.7954,-0.7971,-0.797,-0.7974,-0.8016,-0.7977,-0.7975,-0.7983,-0.7979,-0.7981,-0.798,-0.7969,-0.8002,-0.8007,-0.8032,-0.7982,-0.8086,-0.809,-0.8093,-0.8135,-0.8142,-0.8149,0,0,0,0,0,-0.7946,-0.7984,-0.7972,-0.7976,-0.7995,-0.8017,-0.8019,-0.8006,-0.7985,-0.8002,-0.7999,-0.798,-0.8026,-0.8005,-0.8011,-0.8037,-0.8084,-0.8089,-0.8092,-0.8131,-0.8141,-0.8149,0,0,0,0,0,0,-0.7988,-0.7983,-0.797,-0.8008,-0.8013,-0.8011,-0.8032,-0.8016,-0.8028,-0.8024,-0.8007,-0.8008,-0.8042,-0.8043,-0.8019,-0.8081,-0.8052,-0.8057,-0.808,-0.8089,-0.8096,-0.8095,-0.7984,0,0,0,0,0,-0.8002,-0.8019,-0.8014,-0.8048,-0.8051,-0.8041,-0.805,-0.8039,-0.8044,-0.8047,-0.8045,-0.8051,-0.8067,-0.8078,-0.8092,-0.8135,-0.8134,-0.8155,-0.8162,-0.8168,-0.8173,-0.8195,-0.8204,-0.8108,-0.8108,-0.8108,0,0,-0.803,-0.803,-0.8042,-0.8057,-0.8059,-0.8078,-0.8043,-0.8065,-0.8079,-0.805,-0.8079,-0.8079,-0.8084,-0.8121,-0.8137,-0.8122,-0.8199,-0.8173,-0.8178,-0.818,-0.82,-0.8209,-0.8217,-0.8111,-0.811,-0.811,0,0,-0.8091,-0.8093,-0.8121,-0.8124,-0.8128,-0.8121,-0.8128,-0.8128,-0.8126,-0.8155,-0.8134,-0.8151,-0.8178,-0.8183,-0.8189,-0.8252,-0.8235,-0.8257,-0.8294,-0.8316,-0.8324,-0.833,-0.8352,-0.836,-0.8262,-0.8262,-0.8262,0,-0.8126,-0.8153,-0.8138,-0.816,-0.8168,-0.8141,-0.817,-0.8174,-0.8183,-0.8189,-0.8172,-0.8206,-0.8208,-0.8246,-0.8261,-0.8267,-0.8274,-0.8257,-0.8324,-0.833,-0.8336,-0.8357,-0.8365,-0.8265,-0.8265,-0.8264,-0.8264,0,-0.8196,-0.8215,-0.8237,-0.8246,-0.8256,-0.8281,-0.827,-0.8282,-0.827,-0.8265,-0.8295,-0.8296,-0.831,-0.8319,-0.8308,-0.8355,-0.8345,-0.8327,-0.8296,-0.8348,-0.8367,-0.8375,-0.8269,-0.8268,-0.8267,-0.8266,0,0,-0.8283,-0.8283,-0.8291,-0.8294,-0.8297,-0.8312,-0.8337,-0.835,-0.836,-0.8368,-0.8388,-0.8412,-0.8394,-0.8401,-0.8391,-0.841,-0.8459,-0.8388,-0.8388,-0.8401,-0.851,-0.8524,-0.8533,-0.8448,-0.8449,-0.845,-0.851,0,-0.8343,-0.8384,-0.8371,-0.8413,-0.843,-0.8406,-0.8427,-0.8431,-0.8428,-0.8442,-0.8438,-0.8455,-0.8431,-0.8435,-0.8453,-0.8449,-0.8481,-0.8445,-0.8466,-0.8467,-0.8465,-0.8544,-0.8558,-0.8614,-0.8517,-0.8518,-0.8519,0,-0.8418,-0.8427,-0.8471,-0.847,-0.8477,-0.8496,-0.8507,-0.8521,-0.8526,-0.8522,-0.8529,-0.8515,-0.8539,-0.8509,-0.8543,-0.8519,-0.8527,-0.8526,-0.8528,-0.8529,-0.8496,-0.8546,-0.8632,-0.864,-0.8531,-0.853,-0.8529,0,-0.8477,-0.85,-0.8529,-0.8533,-0.8533,-0.8547,-0.8548,-0.8551,-0.856,-0.8569,-0.8575,-0.8588,-0.8595,-0.8605,-0.8594,-0.8574,-0.8629,-0.8599,-0.8626,-0.8627,-0.8639,-0.8638,-0.8726,-0.8645,-0.8645,-0.8645,-0.8645,0,-0.8544,-0.8572,-0.8556,-0.8573,-0.8604,-0.8588,-0.8619,-0.8617,-0.8619,-0.8637,-0.8617,-0.8633,-0.8619,-0.8634,-0.8626,-0.8655,-0.8658,-0.8655,-0.8653,-0.8657,-0.8657,-0.8661,-0.8657,-0.8647,-0.8646,-0.8646,-0.8646,0,-0.8615,-0.8605,-0.8635,-0.8633,-0.8633,-0.8655,-0.8653,-0.867,-0.8664,-0.8686,-0.8691,-0.8682,-0.87,-0.869,-0.8708,-0.8702,-0.8739,-0.8732,-0.8738,-0.8735,-0.8763,-0.876,-0.8857,-0.8868,-0.8781,-0.8782,-0.8782,0,-0.8658,-0.8679,-0.8678,-0.8688,-0.869,-0.8706,-0.8715,-0.8701,-0.871,-0.8717,-0.8733,-0.8748,-0.8759,-0.8788,-0.8784,-0.8797,-0.8789,-0.8822,-0.8791,-0.8795,-0.8789,-0.8788,-0.8789,-0.8828,-0.8829,-0.883,-0.8831,0,-0.8736,-0.873,-0.8743,-0.8754,-0.8765,-0.8773,-0.8779,-0.8789,-0.8775,-0.8787,-0.8804,-0.8813,-0.883,-0.8846,-0.8857,-0.8858,-0.8842,-0.8841,-0.8848,-0.8852,-0.8854,-0.8852,-0.8754,-0.8838,-0.8838,-0.8837,-0.8837,-0.8836,-0.8794,-0.8811,-0.8813,-0.8828,-0.8831,-0.8838,-0.8853,-0.8849,-0.8863,-0.8876,-0.8867,-0.8887,-0.8891,-0.8904,-0.8908,-0.8923,-0.891,-0.892,-0.8923,-0.8925,-0.8929,-0.8852,-0.8925,-0.8925,-0.8925,-0.8925,-0.8925,0,-0.887,-0.887,-0.8884,-0.8894,-0.8905,-0.8889,-0.8895,-0.8906,-0.8924,-0.8928,-0.894,-0.8959,-0.8974,-0.8971,-0.8984,-0.8997,-0.899,-0.9001,-0.9,-0.9,-0.894,-0.8932,-0.9007,-0.9007,-0.9007,-0.9007,-0.9007,-0.9007,-0.8911,-0.8938,-0.8933,-0.8962,-0.8962,-0.8981,-0.8986,-0.8992,-0.8995,-0.9018,-0.9029,-0.9027,-0.9029,-0.9042,-0.9055,-0.9054,-0.9059,-0.9073,-0.9069,-0.9013,-0.9005,-0.8997,-0.8989,-0.9074,-0.9075,-0.9128,-0.9128,-0.9128]},{"header":{"parameterUnit":"m.s-1","parameterCategory":1,"la1":30.2991,"la2":30.254,"lo1":-89.0895,"lo2":-89.0444,"dy":0.0017,"dx":0.0017,"nx":28,"ny":28,"refTime":"2023-10-22T21:00:00:Z","depth":0,"parameterNumber":3,"parameterNumberName":"V-component_of_WINDS"},"data":[0,0,0,0,0,0,0,0,0,0,0,0,0,0,0,0,0,0,0,0,0,0,0,0,0,0,0,0,0,0,0,0,0,0,0,0,0,0,0,0,0,0,0,0,0,0,0,0,0,0,0,0,0,0,0,0,0,0,-0.6655,-0.6655,0,-0.666,-0.666,-0.666,-0.6654,-0.6653,-0.6653,-0.6653,-0.6658,-0.6658,-0.6658,0,0,0,0,0,0,0,0,0,0,0,0,0,-0.6641,-0.6641,-0.6655,-0.6655,-0.6655,-0.666,-0.666,-0.666,-0.6654,-0.6653,-0.6653,-0.6653,-0.6657,-0.6658,-0.6658,0,0,0,0,0,0,0,0,0,0,0,0,0,-0.6646,-0.6641,-0.6655,-0.6653,-0.6653,-0.666,-0.666,-0.666,-0.6654,-0.6653,-0.6653,-0.6653,-0.6657,-0.6658,-0.6658,-0.6668,0,0,-0.666,-0.666,0,0,0,0,0,0,0,0,-0.6646,-0.6647,-0.6653,-0.6653,-0.6653,-0.6656,-0.6656,-0.6662,-0.6654,-0.6653,-0.6653,-0.6653,-0.6657,-0.6658,-0.6659,-0.6668,-0.6668,-0.666,-0.666,-0.666,-0.666,0,0,0,0,0,0,0,-0.6646,-0.6647,-0.6657,-0.6653,-0.6653,-0.6651,-0.6652,-0.6657,-0.6657,-0.6653,-0.6653,-0.6654,-0.6657,-0.6659,-0.6659,-0.6668,-0.666,-0.666,-0.666,-0.6661,-0.6684,-0.6684,0,0,0,0,0,0,-0.6646,-0.6646,-0.6657,-0.6657,-0.6649,-0.6652,-0.6652,-0.6655,-0.6657,-0.6657,-0.6654,-0.6653,-0.6658,-0.6659,-0.6659,-0.667,-0.666,-0.6661,-0.6661,-0.6684,-0.6684,-0.6685,0,0,0,0,0,0,-0.6645,-0.6647,-0.6657,-0.6652,-0.6653,-0.6652,-0.6656,-0.6655,-0.6657,-0.6657,-0.6657,-0.6656,-0.6658,-0.6659,-0.6666,-0.667,-0.6661,-0.6661,-0.6683,-0.6684,-0.6684,-0.6692,0,0,0,0,0,0,-0.6645,-0.6647,-0.665,-0.6652,-0.6653,-0.6663,-0.6656,-0.6656,-0.6658,-0.6657,-0.6659,-0.6659,-0.6658,-0.6665,-0.6666,-0.6671,-0.6662,-0.6683,-0.6684,-0.6684,-0.6691,-0.6693,-0.6694,0,0,0,0,0,-0.6644,-0.6652,-0.6651,-0.6652,-0.6658,-0.6663,-0.6664,-0.6662,-0.6658,-0.6662,-0.6662,-0.6659,-0.667,-0.6666,-0.6667,-0.6672,-0.6683,-0.6683,-0.6684,-0.6691,-0.6692,-0.6694,0,0,0,0,0,0,-0.6652,-0.6653,-0.6651,-0.6659,-0.6661,-0.6662,-0.6667,-0.6664,-0.6667,-0.6666,-0.6664,-0.6665,-0.6672,-0.6672,-0.6668,-0.6681,-0.6675,-0.6676,-0.668,-0.6682,-0.6683,-0.6682,-0.6662,0,0,0,0,0,-0.6654,-0.6659,-0.6659,-0.6667,-0.6668,-0.6667,-0.6669,-0.6668,-0.667,-0.6671,-0.6671,-0.6673,-0.6677,-0.6679,-0.6683,-0.6691,-0.6691,-0.6695,-0.6697,-0.6698,-0.6698,-0.6703,-0.6704,-0.6687,-0.6687,-0.6687,0,0,-0.666,-0.6661,-0.6664,-0.6668,-0.667,-0.6674,-0.6668,-0.6673,-0.6676,-0.6671,-0.6678,-0.6678,-0.668,-0.6688,-0.6691,-0.6688,-0.6703,-0.6699,-0.6699,-0.67,-0.6703,-0.6705,-0.6707,-0.6688,-0.6687,-0.6687,0,0,-0.6672,-0.6673,-0.6679,-0.6681,-0.6683,-0.6682,-0.6683,-0.6685,-0.6685,-0.6691,-0.6687,-0.6691,-0.6698,-0.6699,-0.6701,-0.6712,-0.6709,-0.6714,-0.672,-0.6724,-0.6725,-0.6727,-0.673,-0.6732,-0.6714,-0.6714,-0.6714,0,-0.6679,-0.6685,-0.6683,-0.6688,-0.669,-0.6686,-0.6692,-0.6693,-0.6696,-0.6697,-0.6694,-0.6702,-0.6703,-0.6711,-0.6713,-0.6715,-0.6716,-0.6713,-0.6725,-0.6727,-0.6728,-0.6731,-0.6733,-0.6715,-0.6715,-0.6715,-0.6715,0,-0.6693,-0.6697,-0.6702,-0.6705,-0.6707,-0.6713,-0.6711,-0.6714,-0.6712,-0.6711,-0.6718,-0.6719,-0.6722,-0.6724,-0.6722,-0.6731,-0.6729,-0.6726,-0.672,-0.673,-0.6733,-0.6735,-0.6716,-0.6715,-0.6715,-0.6715,0,0,-0.671,-0.6711,-0.6713,-0.6713,-0.6715,-0.6718,-0.6723,-0.6727,-0.6729,-0.6731,-0.6735,-0.674,-0.6737,-0.6739,-0.6737,-0.6741,-0.6749,-0.6737,-0.6737,-0.6739,-0.6758,-0.6761,-0.6762,-0.6747,-0.6748,-0.6748,-0.6758,0,-0.6722,-0.673,-0.6728,-0.6737,-0.6741,-0.6736,-0.6741,-0.6742,-0.6742,-0.6745,-0.6744,-0.6748,-0.6744,-0.6745,-0.6748,-0.6748,-0.6753,-0.6747,-0.6751,-0.6751,-0.675,-0.6764,-0.6767,-0.6776,-0.6759,-0.676,-0.676,0,-0.6736,-0.6739,-0.6748,-0.6748,-0.6749,-0.6753,-0.6756,-0.6759,-0.676,-0.6759,-0.6761,-0.6759,-0.6763,-0.6758,-0.6764,-0.676,-0.6761,-0.6761,-0.6762,-0.6762,-0.6756,-0.6764,-0.6779,-0.6781,-0.6762,-0.6762,-0.6762,0,-0.6747,-0.6753,-0.6759,-0.676,-0.676,-0.6763,-0.6763,-0.6764,-0.6766,-0.6768,-0.6769,-0.6772,-0.6773,-0.6775,-0.6773,-0.677,-0.678,-0.6774,-0.6779,-0.6779,-0.6781,-0.6781,-0.6796,-0.6783,-0.6783,-0.6783,-0.6782,0,-0.6761,-0.6766,-0.6763,-0.6767,-0.6773,-0.677,-0.6776,-0.6776,-0.6777,-0.678,-0.6777,-0.678,-0.6777,-0.678,-0.6779,-0.6784,-0.6785,-0.6784,-0.6784,-0.6784,-0.6784,-0.6785,-0.6784,-0.6783,-0.6783,-0.6783,-0.6783,0,-0.6774,-0.6773,-0.6778,-0.6778,-0.6778,-0.6783,-0.6783,-0.6786,-0.6785,-0.6789,-0.679,-0.6788,-0.6792,-0.679,-0.6793,-0.6792,-0.6799,-0.6797,-0.6798,-0.6798,-0.6802,-0.6802,-0.6819,-0.6821,-0.6806,-0.6806,-0.6806,0,-0.6782,-0.6786,-0.6787,-0.6788,-0.6789,-0.6792,-0.6794,-0.6791,-0.6793,-0.6794,-0.6797,-0.68,-0.6802,-0.6807,-0.6806,-0.6809,-0.6807,-0.6813,-0.6808,-0.6808,-0.6807,-0.6807,-0.6807,-0.6814,-0.6814,-0.6814,-0.6814,0,-0.6797,-0.6796,-0.6799,-0.6801,-0.6803,-0.6804,-0.6805,-0.6807,-0.6805,-0.6807,-0.681,-0.6811,-0.6815,-0.6817,-0.6819,-0.6819,-0.6816,-0.6816,-0.6817,-0.6818,-0.6818,-0.6818,-0.6801,-0.6816,-0.6816,-0.6816,-0.6815,-0.6815,-0.6808,-0.6811,-0.6812,-0.6814,-0.6815,-0.6816,-0.6819,-0.6818,-0.682,-0.6823,-0.6821,-0.6824,-0.6825,-0.6827,-0.6828,-0.683,-0.6828,-0.683,-0.683,-0.683,-0.6831,-0.6818,-0.6831,-0.6831,-0.6831,-0.6831,-0.683,0,-0.6822,-0.6822,-0.6825,-0.6826,-0.6828,-0.6825,-0.6826,-0.6828,-0.6831,-0.6832,-0.6834,-0.6837,-0.6839,-0.6839,-0.6841,-0.6843,-0.6841,-0.6843,-0.6843,-0.6843,-0.6833,-0.6832,-0.6844,-0.6844,-0.6844,-0.6844,-0.6844,-0.6844,-0.683,-0.6835,-0.6834,-0.6839,-0.6839,-0.6842,-0.6843,-0.6843,-0.6844,-0.6847,-0.6849,-0.6849,-0.6849,-0.6851,-0.6853,-0.6852,-0.6853,-0.6855,-0.6855,-0.6845,-0.6844,-0.6843,-0.6841,-0.6856,-0.6856,-0.6864,-0.6864,-0.6865]}]]